Tracking 35275 objects as of 8-Sep-2026
HD Live streaming from Space Station
objects crossing your sky now

STARLINK-33970

Track STARLINK-33970 now!
10-day predictions
STARLINK-33970 is classified as:


NORAD ID: 64106
Int'l Code: 2025-110L
Launch date: May 23, 2025
Source: United States (US)
Launch site: AIR FORCE WESTERN TEST RANGE (AFWTR)
Your satellite tracking list
Your tracking list is empty




NASA's NSSDC Master Catalog

Two Line Element Set (TLE):
1 64106U 25110L   26251.38919281  .00037470  00000-0  11125-2 0  9996
2 64106  53.1573 254.6694 0002066  64.9233 295.1984 15.34457917 73903
Source of the keplerian elements: AFSPC